This demonstration page uses our WeatherBlox Daily Observations layout. Learn more.

Left ArrowRight Arrow

34.74481, -87.66753

Hourly Observations for April 1, 2017

Temp ( °F °C ) Dew Point ( °F °C ) Humidity (%) Winds ( mph kmh ) Pressure ( in mb ) Visibility ( mi km ) Precip ( " mm )
12:53 am 00:53 Clear 55 12.8 46 7.8 72 72 Calm 30.01 1016 10 16 0.00 0.00
1:53 am 01:53 Clear 51 10.6 45 7.2 80 80 Calm 30.01 1016 10 16 0.00 0.00
2:53 am 02:53 Clear 50 10 45 7.2 83 83 Calm 30.03 1017 10 16 0.00 0.00
3:53 am 03:53 Clear 49 9.4 45 7.2 86 86 Calm 30.05 1018 10 16 0.00 0.00
4:53 am 04:53 Clear 52 11.1 46 7.8 80 80 N 5 7 30.07 1018 10 16 0.00 0.00
5:53 am 05:53 Clear 51 10.6 46 7.8 83 83 NNE 3 6 30.08 1019 10 16 0.00 0.00
6:53 am 06:53 Sunny 51 10.6 46 7.8 83 83 NE 5 7 30.10 1019 10 16 0.00 0.00
7:39 am 07:39 Mostly Sunny 52 11.1 46 7.8 80 80 NE 8 13 30.12 1020 10 16 0.00 0.00
7:53 am 07:53 Sunny 53 11.7 46 7.8 77 77 ENE 6 9 30.12 1020 10 16 0.00 0.00
8:53 am 08:53 Sunny 54 12.2 46 7.8 75 75 ENE 7 11 30.14 1021 10 16 0.00 0.00
9:53 am 09:53 Sunny 57 13.9 46 7.8 67 67 VRB 6 9 30.14 1021 10 16 0.00 0.00
10:53 am 10:53 Sunny 60 15.6 47 8.3 62 62 VRB 5 7 30.15 1021 10 16 0.00 0.00
11:53 am 11:53 Sunny 63 17.2 48 8.9 58 58 VRB 3 6 30.14 1021 10 16 0.00 0.00
12:53 pm 12:53 Sunny 65 18.3 48 8.9 54 54 ENE 7 11 30.12 1020 10 16 0.00 0.00
1:53 pm 13:53 Sunny 68 20 49 9.4 51 51 VRB 6 9 30.11 1020 10 16 0.00 0.00
2:53 pm 14:53 Sunny 70 21.1 49 9.4 47 47 N 7 11 30.09 1019 10 16 0.00 0.00
3:53 pm 15:53 Sunny 70 21.1 47 8.3 44 44 Calm 30.09 1019 10 16 0.00 0.00
4:53 pm 16:53 Sunny 71 21.7 48 8.9 44 44 E 3 6 30.08 1019 10 16 0.00 0.00
5:53 pm 17:53 Sunny 70 21.1 48 8.9 46 46 E 6 9 30.09 1019 10 16 0.00 0.00
6:53 pm 18:53 Sunny 66 18.9 49 9.4 54 54 E 7 11 30.10 1019 10 16 0.00 0.00
7:53 pm 19:53 Clear 64 17.8 47 8.3 54 54 ENE 6 9 30.09 1019 10 16 0.00 0.00
8:53 pm 20:53 Clear 62 16.7 47 8.3 58 58 ENE 6 9 30.11 1020 10 16 0.00 0.00
9:53 pm 21:53 Clear 59 15 47 8.3 64 64 ENE 7 11 30.11 1020 10 16 0.00 0.00
10:53 pm 22:53 Clear 58 14.4 45 7.2 62 62 E 7 11 30.11 1020 10 16 0.00 0.00
11:53 pm 23:53 Clear 55 12.8 45 7.2 69 69 E 3 6 30.12 1020 10 16 0.00 0.00

Powered by AerisWeather